Rifle, CO

2:43 PM MDT on March 27, 2017 (GMT -0600)
Garfield County Regional

Weather History for KRIL - June, 2012

Change the Weather History Date:

Sunday, June 24, 2012

  Actual Average Record
Temperature  
Mean Temperature 79 °F 69 °F  
Max Temperature 99 °F 88 °F 99 °F (1990)
Min Temperature 58 °F 50 °F 35 °F (1993)
Degree Days  
Heating Degree Days 0 0  
Month to date heating degree days 10 57  
Since 1 June heating degree days 10 57  
Since 1 July heating degree days 6017 6623  
Cooling Degree Days 14 4  
Month to date cooling degree days 127 63  
Year to date cooling degree days 135 70  
Since 1 June cooling degree days 127 63  
Growing Degree Days 29 (Base 50)    
Moisture  
Dew Point 31 °F    
Average Humidity 19    
Maximum Humidity 29    
Minimum Humidity 9    
Precipitation  
Precipitation T in 0.03 in 1.46 in (1969)
Month to date precipitation 0.01 0.92  
Year to date precipitation 2.56 6.34  
Sea Level Pressure  
Sea Level Pressure 29.85 in    
Wind  
Wind Speed 5 mph (NE)    
Max Wind Speed 28 mph    
Max Gust Speed 35 mph    
Visibility 10 miles    
Events      
T = Trace of Precipitation, MM = Missing Value Source: NWS Daily Summary

Daily Weather History Graph

Daily Weather History Graph

Search for Another Location

Airport or City:

Trip Planner

Search our weather history database for the weather conditions in past years. The results will help you decide how hot, cold, wet, or windy it might be!

Date:

Astronomy

Jun. 24, 2012 Rise Set
Actual Time 5:44 AM MDT 8:42 PM MDT
Civil Twilight 5:12 AM MDT 9:14 PM MDT
Nautical Twilight 4:31 AM MDT 9:55 PM MDT
Astronomical Twilight 3:43 AM MDT 10:43 PM MDT
Moon 10:52 AM MDT (6/24) 11:43 PM MDT (6/24)
Length of Visible Light 16h 02m
Length of Day
14h 57m
Waxing Crescent, 25% of the Moon is Illuminated
Jun 24
Waxing Crescent
Jun 26
First Quarter
Jul 3
Full
Jul 10
Last Quarter
Jul 18
New

Hourly Weather History & Observations

Time (MDT) Temp. Dew Point Humidity Pressure Visibility Wind Dir Wind Speed Gust Speed Precip Events Conditions
12:53 AM 68.0 °F 24.1 °F 19% 29.78 in 10.0 mi Calm Calm - N/A   Clear
1:53 AM 64.0 °F 25.0 °F 23% 29.79 in 10.0 mi Calm Calm - N/A   Clear
2:53 AM 63.0 °F 25.0 °F 24% 29.82 in 10.0 mi Calm Calm - N/A   Partly Cloudy
3:53 AM 61.0 °F 25.0 °F 25% 29.83 in 10.0 mi Calm Calm - N/A   Partly Cloudy
4:53 AM 60.1 °F 26.1 °F 27% 29.86 in 10.0 mi Calm Calm - N/A   Clear
5:53 AM 60.1 °F 28.0 °F 30% 29.89 in 10.0 mi Calm Calm - N/A   Clear
6:53 AM 62.1 °F 28.0 °F 28% 29.91 in 10.0 mi ESE 3.5 mph - N/A   Clear
7:53 AM 66.9 °F 30.0 °F 25% 29.92 in 10.0 mi North 3.5 mph - N/A   Clear
8:53 AM 73.0 °F 37.0 °F 27% 29.94 in 10.0 mi Calm Calm - N/A   Clear
9:53 AM 78.1 °F 34.0 °F 20% 29.94 in 10.0 mi Calm Calm - N/A   Clear
10:53 AM 84.0 °F 35.1 °F 17% 29.91 in 10.0 mi North 4.6 mph - N/A   Clear
11:53 AM 91.0 °F 30.9 °F 12% 29.89 in 10.0 mi Variable 3.5 mph - N/A   Clear
12:53 PM 93.0 °F 27.0 °F 9% 29.87 in 10.0 mi WSW 6.9 mph - N/A   Clear
1:53 PM 96.1 °F 28.9 °F 9% 29.84 in 10.0 mi WNW 12.7 mph 17.3 mph N/A   Clear
2:53 PM 96.1 °F 30.9 °F 10% 29.82 in 10.0 mi WNW 10.4 mph - N/A   Clear
3:53 PM 98.1 °F 30.9 °F 9% 29.79 in 10.0 mi North 9.2 mph - N/A   Clear
4:53 PM 96.1 °F 28.9 °F 9% 29.79 in 10.0 mi Calm Calm - N/A   Clear
5:53 PM 95.0 °F 28.0 °F 9% 29.80 in 10.0 mi West 15.0 mph 19.6 mph N/A   Partly Cloudy
6:53 PM 90.0 °F 36.0 °F 15% 29.84 in 10.0 mi East 15.0 mph 21.9 mph 0.00 in   Clear
7:53 PM 88.0 °F 34.0 °F 15% 29.82 in 10.0 mi East 5.8 mph - N/A   Partly Cloudy
8:53 PM 82.0 °F 36.0 °F 19% 29.84 in 10.0 mi SE 6.9 mph - N/A   Clear
9:53 PM 78.1 °F 37.0 °F 23% 29.86 in 10.0 mi Variable 3.5 mph - N/A   Clear
10:53 PM 75.9 °F 37.0 °F 24% 29.86 in 10.0 mi SSE 3.5 mph - N/A   Clear
11:53 PM 73.9 °F 37.9 °F 27% 29.83 in 10.0 mi SSE 6.9 mph - N/A   Clear